Погода в Ужгороде

Погода в Ужгороде : погода сейчас, прогноз погоды и архив. Всё, что Вы хотите узнать о погоде в Ужгороде!

Поиск расширенной информации на нашем сайте:

Другие новости

Новости СМИ2

Главная страница сайта

Новости сайта

03.07.2017

Напоминаем, что на нашем специализированном сайте Метеоцентр.Азия вы можете получить высокодетализированные автоматические прогнозы погоды по пунктам России, СНГ и мира в авиационном формате (включающие направление и скорость ветра, видимость, явления погоды, количество и форму облачности, нижнюю и верхнюю границу облачности).


Погода в Ужгороде - сегодня

Время (UTC), дата Ветер
(°,м/с) 
Видим.   Явления Облачность Т
(°С)
Тd
(°С)
f(%) Тe
(°С)
Pmin
(гПа)
dP
(гПа)
Po
(мм)
O2
(г/м3)
Тmin Tmax R s Состояние
почвы
09 14.12.17 130 (ЮВ) 10 км  {дождь}  10/10 300 м 
[Sc]
+3.5 +2 90 +1  1008  -1.4  745  296           
12 14.12.17 130 (ЮВ) 10 км  {дождь}  10/10 420 м 
[Sc]
+4.6 +2.6 87 +3  1006.4  -1.4  744  294      0.0     
15 14.12.17 150 (ЮВ) 10 км  в посл. час дождь  10/10 400 м 
[Sc]
+4.4 +2.2 86 +4  1006.7  0.3  744  295           
18 14.12.17 130 (ЮВ) 10 км  {дождь}  10/10 480 м 
[Sc]
+5 +2.8 86 +4  1006  -0.8  744  294    +5  0.0     
21 14.12.17 130 (ЮВ) 10 км    10/10 540 м 
[Sc]
+5.1 +3.4 89 +4  1007.5  1.5  745  294           
00 15.12.17 110 (В) 10 км    10/10 480 м 
[Sc]
+5.2 +4 92 +4  1005.9  -1.5  744  293           
03 15.12.17 130 (ЮВ) 5000 м  слаб. дождь  10/10 360 м 
[Ns]
+5.3 +4.1 92 +4  1004.7  -1.2  743  293           
06 15.12.17 130 (ЮВ) 10 км  {дождь}  10/10 360 м 
[Sc]
+5.4 +4.2 92 +4  1003.5  -1.2  742  292  +4.8       
09 15.12.17 130 (ЮВ) 10 км  слаб. дождь  10/10 480 м 
[Ns]
+6.3 +4.9 91 +4  1002.4  -1  741  291           
12 15.12.17 120 (ЮВ) 10 км  слаб. дождь  10/10 360 м 
[Ns]
+7.6 +6.7 94 +6  1001.1  -1.2  740  289         
15 15.12.17 170 (Ю) 10 км  слаб. дождь  10/10 360 м 
[Ns]
+8.2 +7.6 96 +8  1001.7  0.6  741  288           
18 15.12.17 130 (ЮВ) 10 км  слаб. дождь  10/10 500 м 
[Ns]
+7.6 +7 96 +7  1001.8  741  289    +8.3     
21 15.12.17 тихо ()   5000 м  дымка{дождь}  10/10 210 м 
[St]
+7.1 +6.7 97 +7  1001.2  -0.5  740  290           
00 16.12.17 100 (В) 5000 м  слаб. дождь  10/10 360 м 
[Ns]
+7 +6.4 96 +8  999.2  -2  739  289         
03 16.12.17 360 (С) 10 км  слаб. дождь  10/10 500 м 
[Ns]
+6.6 +5.9 95 +6  996.9  -2.3  737  289           
06 16.12.17 320 (СЗ) 10 км  слаб. дождь  10/10 800 м 
[Ns]
+3.5 +3 97 +2  997.4  0.3  737  293  +3.4    19     
09 16.12.17 330 (СЗ) 10 км  {дождь}  10/10 1200 м 
[Sc]
+4 +0.9 80 +3  999.5  2.1  739  293           
12 16.12.17 300 (СЗ) 4000 м  слаб. дождь  10/10 450 м 
[Ns]
+2.9 +1.6 91 1002.5  2.9  741  295         
15 16.12.17 320 (СЗ) 10 км  слаб. дождь{снег}  10/10 450 м 
[Ns]
+1.6 +0.2 90 -1  1007.3  4.6  744  298           
18 16.12.17 тихо ()   10 км  {снег, дождь}  10/10 900 м 
[Sc]
+1.6 -0.6 85 +2  1011.2  3.9  747  299    +4.3     
21 16.12.17 тихо ()   10 км    ясно 
-0.4 -1.3 94 -0  1013.4  749  302           
00 17.12.17 тихо ()   10 км    ясно 
-2.1 -3.3 91 -2  1015.1  1.6  750  305           
03 17.12.17 тихо ()   10 км    9/9 1500 м 
[Sc]
-2 -2.9 94 -2  1016.2  1.1  751  305           
06 17.12.17 тихо ()   10 км    8/8 1500 м 
[Sc]
-2 -2.9 94 -2  1017.2  752  305  -3         
09 17.12.17 280 (З) 10 км    3/3 1000 м 
[Sc]
+1 -0.4 90 +2  1018.2  1.2  753  302           
Время (UTC), дата Ветер
(°,м/с) 
Видим.   Явления Облачность Т
(°С)
Тd
(°С)
f(%) Тe
(°С)
Pmin
(гПа)
dP
(гПа)
Po
(мм)
O2
(г/м3)
Тmin Tmax R s Состояние
почвы

Для получения пояснительной информации подведите курсор к названию столбца.

ПОГОДА в Ужгороде - архив

Всё, что Вы хотите узнать о погоде в Ужгороде - удобно и подробно!

Выберите нужную дату (начиная с 1 января 2015* года) и нажмите кнопку "Найти".
Будут отображены архивные сводки погоды по пункту Ужгород, начиная с указанной даты.


Отображать данные в формате CSV (для использования в таблицах Excel)


Внимание! Наш архив погоды предназначен исключительно для личного некоммерческого использования в познавательных целях. Если Вам необходимы официальные справки о состоянии погоды (для производственных, юридических, коммерческих и т.п. целей), обращайтесь в органы Росгидромета.

*Примечание: данная дата относится к архиву по метеостанциям СССР (Россия, СНГ, Балтия).
Архив по метеостанциям Зарубежной Европы и Азии (кроме Китая) хранится 10 дней, по другим регионам земного шара (Китай, Африка, Америка, Австралия, Океания) - 1 день.

Ужгород - район местоположения метеостанции


Название, широта, долгота, высота метеостанции:
Ужгород 48.6°ш. 22.3°д. 124 м над ур. моря [Украина]

Дополнительная информация

В oтличие oт бoльшинства пoгoдных сайтoв мы публикуем пoдрoбную метеoинфoрмацию в детальнoм прoфессиoнальнoм фoрмате.

Характеристики температуры и влажнoсти вoздуха измеряются на высoте 2 м в тени вдали oт зданий и деревьев.
Скoрoсть ветра измеряется на высoте 10 м (на урoвне рoста челoвека скoрoсть ветра ниже в 1.5-2 раза). Если метеoстанция нахoдится в гoрoде или в лесу, тo скoрoсть ветра занижена на 2-4 м/с пo сравнению с oткрытым местoм. Скoрoсть ветра над акватoриями крупных рек и oзёр, а также на вершинах хoлмoв на 2-5 м/с выше, чем в oбычных услoвиях.
Атмoсфернoе давление в разных тoчках местнoсти мoжет значительнo oтличаться oт давления на метеoстанции, в зависимoсти oт услoвий рельефа (при пoдъёме на 10 м давление пoнижается примернo на 1 мм рт.ст.).